TimeMST,TemperatureF,Dew PointF,Humidity,Sea Level PressureIn,VisibilityMPH,Wind Direction,Wind SpeedMPH,Gust SpeedMPH,PrecipitationIn,Events,Conditions,WindDirDegrees,DateUTC
12:53 AM,25.0,15.1,66,29.83,10.0,NW,12.7,-,N/A,,Clear,320,2012-12-17 07:53:00
1:53 AM,24.1,15.1,69,29.83,10.0,NW,12.7,-,N/A,,Clear,310,2012-12-17 08:53:00
2:53 AM,19.9,14.0,78,29.83,10.0,West,8.1,-,N/A,,Clear,280,2012-12-17 09:53:00
3:53 AM,19.0,12.0,74,29.83,10.0,West,6.9,-,N/A,,Clear,280,2012-12-17 10:53:00
4:53 AM,16.0,10.0,77,29.83,10.0,West,5.8,-,N/A,,Clear,260,2012-12-17 11:53:00
5:53 AM,19.0,14.0,81,29.80,10.0,WSW,8.1,-,N/A,,Mostly Cloudy,240,2012-12-17 12:53:00
6:53 AM,19.9,15.1,81,29.80,10.0,WSW,9.2,-,N/A,,Partly Cloudy,250,2012-12-17 13:53:00
7:53 AM,23.0,16.0,74,29.79,10.0,WSW,8.1,-,N/A,,Scattered Clouds,250,2012-12-17 14:53:00
8:53 AM,27.0,19.0,72,29.77,10.0,SW,5.8,-,N/A,,Mostly Cloudy,230,2012-12-17 15:53:00
9:53 AM,32.0,21.9,66,29.75,10.0,WSW,5.8,-,N/A,,Overcast,240,2012-12-17 16:53:00
10:53 AM,37.0,24.1,59,29.68,10.0,SSW,6.9,-,N/A,,Clear,200,2012-12-17 17:53:00
11:53 AM,41.0,26.1,55,29.64,10.0,SSW,6.9,-,N/A,,Clear,200,2012-12-17 18:53:00
12:53 PM,43.0,27.0,53,29.60,10.0,South,4.6,-,N/A,,Clear,180,2012-12-17 19:53:00
1:53 PM,46.9,28.0,48,29.57,10.0,SSW,4.6,-,N/A,,Partly Cloudy,210,2012-12-17 20:53:00
2:53 PM,48.0,27.0,44,29.57,10.0,WSW,5.8,-,N/A,,Clear,250,2012-12-17 21:53:00
5:53 PM,37.9,26.1,62,29.59,10.0,West,8.1,-,N/A,,Partly Cloudy,260,2012-12-18 00:53:00
6:53 PM,37.9,27.0,65,29.59,10.0,West,9.2,-,N/A,,Clear,260,2012-12-18 01:53:00
7:53 PM,37.9,26.1,62,29.59,10.0,West,11.5,-,N/A,,Clear,260,2012-12-18 02:53:00
8:53 PM,39.0,25.0,57,29.58,10.0,West,15.0,-,N/A,,Clear,270,2012-12-18 03:53:00
9:53 PM,35.1,24.1,64,29.59,10.0,West,15.0,-,N/A,,Clear,270,2012-12-18 04:53:00
10:53 PM,37.0,24.1,59,29.60,10.0,West,16.1,24.2,N/A,,Clear,270,2012-12-18 05:53:00
11:53 PM,39.0,25.0,57,29.62,10.0,West,20.7,-,N/A,,Clear,280,2012-12-18 06:53:00